This demonstration page uses our WeatherBlox Daily Observations layout. Learn more.

Left ArrowRight Arrow

Hourly Observations for January 3, 2022

Temp ( °F °C ) Dew Point ( °F °C ) Humidity (%) Winds ( mph kmh ) Pressure ( in mb ) Visibility ( mi km ) Precip ( " mm )
12:54 am 00:54 Clear 6 -14.4 0 -17.8 76 76 SSE 6 9 30.33 1027 10 16 0.00 0.00
1:54 am 01:54 Clear 6 -14.4 0 -17.8 76 76 S 6 9 30.32 1027 10 16 0.00 0.00
2:54 am 02:54 Clear 6 -14.4 1 -17.2 79 79 S 7 11 30.32 1027 10 16 0.00 0.00
3:54 am 03:54 Clear 7 -13.9 2 -16.7 80 80 S 7 11 30.32 1027 10 16 0.00 0.00
4:54 am 04:54 Clear 6 -14.4 1 -17.2 79 79 S 6 9 30.30 1026 10 16 0.00 0.00
5:54 am 05:54 Clear 8 -13.3 3 -16.1 80 80 Calm 30.30 1026 10 16 0.00 0.00
6:54 am 06:54 Clear 6 -14.4 1 -17.2 79 79 SSE 6 9 30.30 1026 10 16 0.00 0.00
7:54 am 07:54 Sunny 9 -12.8 3 -16.1 77 77 S 7 11 30.30 1026 10 16 0.00 0.00
8:54 am 08:54 Sunny 13 -10.6 7 -13.9 77 77 SSW 5 7 30.31 1027 10 16 0.00 0.00
9:54 am 09:54 Sunny 19 -7.2 11 -11.7 71 71 SSW 6 9 30.30 1026 10 16 0.00 0.00
10:54 am 10:54 Sunny 26 -3.3 14 -10 60 60 SSW 9 15 30.29 1026 10 16 0.00 0.00
11:54 am 11:54 Sunny 31 -0.6 17 -8.3 56 56 SSW 5 7 30.26 1025 10 16 0.00 0.00
12:54 pm 12:54 Sunny 38 3.3 21 -6.1 51 51 SSW 12 19 30.21 1023 10 16 0.00 0.00
1:54 pm 13:54 Sunny 42 5.6 24 -4.4 49 49 S 15 24 30.16 1021 10 16 0.00 0.00
2:54 pm 14:54 Sunny 42 5.6 25 -3.9 51 51 S 13 20 30.15 1021 10 16 0.00 0.00
3:54 pm 15:54 Sunny 41 5 25 -3.9 53 53 S 14 22 30.13 1020 10 16 0.00 0.00
4:54 pm 16:54 Sunny 38 3.3 24 -4.4 57 57 S 12 19 30.14 1021 10 16 0.00 0.00
5:54 pm 17:54 Clear 36 2.2 22 -5.6 57 57 S 12 19 30.13 1020 10 16 0.00 0.00
6:54 pm 18:54 Clear 36 2.2 22 -5.6 57 57 S 12 19 30.11 1020 10 16 0.00 0.00
7:54 pm 19:54 Clear 37 2.8 22 -5.6 54 54 SSW 13 20 30.09 1019 10 16 0.00 0.00
8:54 pm 20:54 Clear 36 2.2 23 -5 59 59 SSW 10 17 30.08 1019 10 16 0.00 0.00
9:54 pm 21:54 Clear 30 -1.1 21 -6.1 69 69 S 8 13 30.06 1018 10 16 0.00 0.00
10:54 pm 22:54 Clear 31 -0.6 22 -5.6 69 69 S 10 17 30.04 1017 10 16 0.00 0.00
11:54 pm 23:54 Clear 34 1.1 23 -5 64 64 S 13 20 30.00 1016 10 16 0.00 0.00

Powered by AerisWeather